EHI
0 0 0 0 0 0 0 0 0 0 0 0 0 0 0 0 0 0 0 0 0 0 0 0 0 0 0 0 0 0 0 0 0 0 0 0 0 0 0 0 0 0 0 0
0 0 0 0 0 0 0 0 0 0 0 0 0 0 0 0 0 0 0 0 0 0 0 0 0 0 0 0 0 0 0 0 0 0 0 0 0 0 0 0 0 0 0 0
0 0 0 0 0 0 0 0 0 0 0 0 0 0 0 0 0 0 0 0 0 0 0 0 0 0 0 0 0 0 0 0 0 0 0 0 0 0 0 0 0 0 0 0
0 0 0 0 0 0 0 0 0 0 0 0 0 0 0 0 0 0 0 0 0 0 0 0 0 0 0 0 0 0 0 0 0 0 0 0 0 0 0 0 0 0 0 0
0 0 0 0 0 0 0 0 0 0 0 0 0 0 0 0 0 0 0 0 0 0 0 0 0 0 0 0 0 0 0 0 0 0 0 0 0 0 0 0 0 0 0 0
0 0 0 0 0 0 0 0 0 0 0 0 0 0 0 0 0 0 0 0 0 0 0 0 0 0 0 0 0 0 0 0 0 0 0 0 0 0 0 0 0 0 0 0
0 0 0 0 0 0 0 0 0 0 0 0 0 0 0 0 0 0 0 0 0 0 0 0 0 0 0 0 0 0 0 0 0 0 0 0 0 0 0 0 0 0 0 0
0 0 0 0 0 0 0 0 0 0 0 0 0 0 0 0 0 0 0 0 0 0 0 0 0 0 0 0 0 0 0 0 0 0 0 0 0 0 0 0 0 0 0 0
0 0 0 0 0 0 0 0 0 0 0 0 0 0 0 0 0 0 0 0 0 0 0 0 0 0 0 0 0 0 0 0 0 0 0 0 0 0 0 0 0 0 0 0
0 0 0 0 0 0 0 0 0 0 0 0 0 0 0 0 0 0 0 0 0 0 0 0 0 0 0 0 0 0 0 0 0 0 0 0 0 0 0 0 0 0 0 0
0 0 0 0 0 0 0 0 0 0 0 0 0 0 0 0 0 0 0 0 0 0 0 0 0 0 0 0 0 0 0 0 0 0 0 0 0 0 0 0 0 0 0 0
0 0 0 0 0 0 0 0 0 0 0 0 0 0 0 0 0 0 0 0 0 0 0 0 0 0 0 0 0 0 0 0 0 0 0 0 0 0 0 0 0 0 0 0
0 0 0 0 0 0 0 0 0 0 0 0 0 0 0 0 0 0 0 0 0 0 0 0 0 0 0 0 0 0 0 0 0 0 0 0 0 0 0 0 0 0 0 0
0 0 0 0 0 0 0 0 0 0 0 0 0 0 0 0 0 0 0 0 0 0 0 0 0 0 0 0 0 0 0 0 0 0 0 0 0 0 0 0 0 0 0 0
0 0 0 0 0 0 0 0 0 0 0 0 0 0 0 0 0 0 0 0 0 0 0 0 0 0 0 0 0 0 0 0 0 0 0 0 0 0 0 0 0 0 0 0
0 0 0 0 0 0 0 0 0 0 0 0 0 0 0 0 0 0 0 0 0 0 0 0 0 0 0 0 0 0 0 0 0 0 0 0 0 0 0 0 0 0 0 0
0 0 0 0 0 0 0 0 0 0 0 0 0 0 0 0 0 0 0 0 0 0 0 0 0 0 0 0 0 0 0 0 0 0 0 0 0 0 0 0 0 0 0 0
0 0 0 0 0 0 0 0 0 0 0 0 0 0 0 0 0 0 0 0 0 0 0 0 0 0 0 0 0 0 0 0 0 0 0 0 0 0 0 0 0 0 0 0
0 0 0 0 0 0 0 0 0 0 0 0 0 0 0 0 0 0 0 0 0 0 0 0 0 0 0 0 0 0 0 0 0 0 0 0 0 0 0 0 0 0 0 0
0 0 0 0 0 0 0 0 0 0 0 0 0 0 0 0 0 0 0 0 0 0 0 0 0 0 0 0 0 0 0 0 0 0 0 0 0 0 0 0 0 0 0 0
0 0 0 0 0 0 0 0 0 0 0 0 0 0 0 0 0 0 0 0 0 0 0 0 0 0 0 0 0 0 0 0 0 0 0 0 0 0 0 0 0 0 0 0
0 0 0 0 0 0 0 0 0 0 0 0 0 0 0 0 0 0 0 0 0 0 0 0 0 0 0 0 0 0 0 0 0 0 0 0 0 0 0 0 0 0 0 0
0 0 0 0 0 0 0 0 0 0 0 0 0 0 0 0 0 0 0 0 0 0 0 0 0 0 0 0 0 0 0 0 0 0 0 0 0 0 0 0 0 0 0 0
0 0 0 0 0 0 0 0 0 0 0 0 0 0 0 0 0 0 0 0 0 0 0 0 0 0 0 0 0 0 0 0 0 0 0 0 0 0 0 0 0 0 0 0
0 0 0 0 0 0 0 0 0 0 0 0 0 0 0 0 0 0 0 0 0 0 0 0 0 0 0 0 0 0 0 0 0 0 0 0 0 0 0 0 0 0 0 0
0 0 0 0 0 0 0 0 0 0 0 0 0 0 0 0 0 0 0 0 0 0 0 0 0 0 0 0 0 0 0 0 0 0 0 0 0 0 0 0 0 0 0 0
Wind_Speed
2 1 2 3 4 6 7 9 10 7 4 4 7 8 5 2 1 0 0 0 1 1 1 2 2 2 1 2 2 1 1 0 1 1 1 1 1 1 1 1 1 2 2 2
1 2 3 4 5 6 7 9 9 7 5 6 7 8 5 2 1 0 1 1 2 2 2 2 3 2 2 1 1 1 1 0 1 1 1 1 2 1 2 1 1 1 2 2
2 2 3 4 5 6 7 6 7 8 8 7 7 6 4 1 2 2 2 2 3 3 3 3 3 3 3 2 0 0 1 1 1 1 1 1 1 1 1 1 1 1 2 2
3 3 4 4 5 6 7 4 7 9 7 5 4 5 3 2 1 1 1 2 3 4 4 4 4 3 3 3 2 1 1 1 1 1 1 2 2 2 2 2 1 2 2 2
2 3 4 5 5 6 5 7 9 9 7 7 6 6 3 1 1 1 2 3 5 5 5 5 5 4 3 4 3 1 1 0 1 1 1 2 2 1 1 2 2 2 2 2
3 1 2 4 6 5 6 8 9 7 4 6 7 5 2 1 1 2 3 5 6 6 6 6 6 5 5 4 4 2 2 1 1 0 1 1 2 2 2 2 2 2 1 1
3 0 1 3 5 3 4 4 3 2 3 5 1 2 1 4 6 6 6 7 7 7 7 7 7 7 6 5 4 3 2 2 1 1 1 0 1 2 3 2 2 2 2 1
4 3 2 3 3 3 4 3 2 4 4 4 2 3 2 7 8 9 9 8 8 8 7 7 6 6 6 5 4 4 3 2 2 1 1 1 1 1 2 2 2 1 1 1
4 5 2 2 2 3 3 3 4 5 6 5 4 2 3 8 9 9 10 10 9 8 7 6 7 6 6 5 5 4 3 3 3 2 2 2 2 2 2 2 2 2 1 1
4 6 5 2 1 1 2 3 3 2 3 4 4 2 2 5 6 7 8 9 9 9 7 6 5 6 5 5 5 5 5 4 3 3 2 2 2 2 2 2 2 2 2 2
4 4 5 3 1 1 1 2 3 3 4 3 4 1 4 5 6 6 6 7 7 8 8 7 6 6 5 5 5 6 5 5 4 3 3 3 2 2 2 2 2 2 2 2
3 3 5 4 0 2 1 2 2 2 4 3 3 0 5 6 6 7 7 7 8 7 7 6 6 6 6 6 6 5 5 5 4 3 3 3 3 2 2 2 2 2 3 2
5 3 4 3 0 2 2 3 3 3 3 3 3 2 3 7 8 7 7 8 7 7 8 7 6 6 6 6 6 5 5 5 5 4 3 3 3 2 2 2 2 3 3 3
4 3 3 4 4 3 4 5 3 2 3 4 4 4 6 9 9 9 9 8 7 6 7 7 6 6 7 6 6 6 6 5 4 4 3 3 2 2 2 2 2 2 2 2
2 4 5 7 7 5 4 5 3 3 4 4 6 5 6 7 7 7 7 8 8 8 8 8 7 6 6 6 6 6 5 5 4 3 3 3 3 3 3 3 2 2 2 2
2 4 5 7 7 4 4 4 4 4 5 6 6 5 5 6 6 7 8 8 8 8 9 8 8 7 6 6 6 6 5 5 4 3 4 3 2 2 3 3 2 2 2 2
3 3 4 5 4 4 4 2 2 1 2 2 4 5 6 7 8 7 7 7 8 9 9 9 7 7 6 6 6 5 5 4 4 3 3 3 2 2 2 2 2 2 2 2
3 3 3 4 3 3 1 2 2 0 1 3 3 5 6 6 6 4 5 7 8 8 9 8 7 8 6 5 5 5 5 4 4 3 3 3 3 3 2 2 2 2 2 2
2 2 3 2 3 4 1 3 3 2 2 4 5 6 7 8 5 2 6 8 7 7 7 6 6 7 6 6 6 5 5 4 4 4 3 3 3 2 2 2 2 2 1 2
1 1 2 2 3 3 1 3 4 2 1 5 6 6 7 8 5 5 8 9 8 8 6 6 6 6 6 6 5 5 5 5 4 4 4 3 3 2 2 2 2 1 1 1
1 1 2 3 3 2 2 5 4 1 3 5 5 6 6 4 4 7 8 8 7 7 7 7 6 5 5 5 5 5 5 5 5 4 4 3 3 3 2 2 2 1 1 1
1 2 1 2 3 2 3 3 2 2 4 5 5 5 5 6 6 7 7 8 8 8 7 7 6 5 5 5 5 5 5 5 5 4 4 4 3 3 2 2 2 2 2 1
1 2 1 2 2 1 0 0 2 3 4 5 5 6 5 6 6 7 7 7 7 7 7 6 5 5 5 5 5 5 5 5 4 4 4 3 4 3 2 2 2 2 2 1
1 1 2 2 2 2 1 2 3 3 4 5 5 5 5 6 6 6 7 6 6 6 6 6 6 6 6 5 5 5 5 4 4 4 4 3 3 3 3 2 2 2 2 1
2 1 2 3 3 4 2 3 5 5 5 5 5 5 5 5 6 6 6 6 6 6 6 6 5 5 6 5 5 5 4 4 4 3 3 3 3 2 2 2 2 2 1 2
1 2 2 3 2 3 4 4 5 5 5 5 5 6 5 5 6 6 6 5 5 6 6 6 6 6 5 5 5 5 5 4 3 3 3 3 2 2 2 2 2 4 4 4
Wind_Direction
202 231 255 268 259 274 286 286 284 286 307 289 258 264 271 244 274 289 338 115 61 38 33 44 56 59 79 85 88 96 103 101 111 127 154 153 175 159 149 144 135 142 137 143
257 254 281 292 289 285 283 284 290 297 313 300 273 268 269 230 214 5 22 36 51 20 30 37 44 43 50 76 83 125 142 148 139 162 171 169 163 166 169 165 142 126 135 145
284 327 314 298 300 299 281 274 291 298 306 281 276 272 242 157 90 48 37 36 34 33 24 30 41 34 24 22 29 162 143 145 124 134 148 146 122 117 118 153 149 114 115 129
298 346 339 318 304 301 285 317 303 294 296 279 264 274 234 167 99 67 41 48 30 30 28 25 28 25 16 0 2 96 125 132 132 136 155 163 165 166 175 168 150 131 118 119
308 356 335 317 320 310 294 314 289 277 269 275 260 251 266 102 14 30 47 50 42 35 33 25 18 10 17 16 20 41 62 83 130 143 173 184 173 167 149 141 140 139 133 124
280 345 355 334 325 314 320 307 282 257 241 256 243 228 292 13 21 45 47 45 40 35 30 24 17 14 16 20 24 28 37 20 44 102 162 186 165 149 139 131 138 140 129 125
310 224 64 3 331 315 330 328 315 285 219 236 220 211 260 37 40 49 46 37 28 28 25 21 17 10 9 13 17 18 27 18 21 76 100 222 153 146 144 142 150 146 142 140
323 304 40 8 342 312 290 283 267 274 271 293 283 222 98 56 51 46 42 35 26 23 18 15 13 11 5 6 10 12 19 16 25 51 53 65 72 113 122 115 114 133 152 159
324 295 327 330 327 315 296 278 290 292 289 280 254 173 110 42 38 33 28 22 17 12 11 11 10 7 2 6 7 5 12 12 16 29 39 52 56 53 76 92 91 88 72 114
314 291 295 322 302 279 291 326 316 283 280 269 261 262 10 14 15 19 21 13 6 4 3 5 6 3 3 5 4 10 14 11 17 24 30 40 48 58 60 79 76 74 68 79
308 281 293 302 249 297 324 296 280 281 275 281 283 25 34 36 33 22 17 10 2 359 360 0 0 359 3 8 13 10 9 12 12 19 28 41 47 58 63 75 77 76 63 76
339 303 279 271 258 53 23 333 322 292 292 290 283 276 43 48 38 27 15 9 2 1 359 0 360 1 5 7 9 6 4 7 7 13 26 39 48 61 70 71 66 67 65 60
338 307 302 302 355 36 11 3 342 305 295 281 269 265 27 24 16 14 9 4 1 5 3 2 3 4 3 3 2 1 1 4 3 13 21 44 51 53 66 68 75 68 68 59
327 267 237 261 301 321 310 322 330 304 262 277 274 298 342 358 354 354 357 358 4 4 3 4 2 3 0 357 357 357 357 360 1 6 14 33 47 51 61 62 76 79 74 70
320 279 278 280 289 291 299 302 298 262 270 276 299 311 336 340 340 346 351 353 2 3 3 3 0 357 355 351 350 352 353 354 358 6 7 17 39 48 55 57 65 69 71 66
315 288 298 282 271 280 287 307 291 273 282 286 299 305 347 340 348 357 358 357 357 357 357 356 356 354 350 347 345 347 346 344 354 4 3 9 33 44 48 50 52 63 66 62
285 290 294 283 310 308 285 311 301 337 357 318 300 315 340 347 351 351 355 4 1 354 350 350 350 347 344 342 341 341 340 341 352 358 3 7 22 35 37 42 50 64 69 73
261 276 265 284 310 257 196 52 29 2 12 346 343 350 356 343 331 351 15 8 353 347 344 343 344 344 342 344 346 345 347 351 356 2 3 5 15 23 28 38 44 41 63 76
245 258 274 278 276 261 129 25 4 328 326 15 357 350 350 339 326 359 15 2 347 339 336 335 340 339 341 347 347 348 353 357 3 2 357 360 4 16 27 31 28 29 50 61
348 316 266 276 276 278 358 344 325 306 279 16 359 345 345 347 338 319 343 343 341 341 340 339 340 342 346 347 351 352 353 357 358 354 355 357 359 9 21 17 15 14 44 76
325 289 260 266 260 270 349 321 339 348 296 336 342 340 342 334 299 307 327 336 338 338 339 341 341 342 342 346 352 349 352 351 348 349 355 359 359 2 11 9 13 24 33 59
268 289 279 289 262 272 7 11 28 297 320 331 337 339 330 317 317 325 331 335 338 340 341 343 340 339 342 348 351 345 346 346 349 350 356 359 360 3 9 20 17 22 34 49
197 221 259 231 238 265 31 32 311 329 321 326 331 331 328 322 322 329 331 333 336 338 338 340 340 339 345 350 351 344 340 346 350 351 353 355 0 6 8 17 17 19 21 26
222 267 266 276 274 300 307 335 344 336 324 323 328 330 329 323 323 327 329 332 336 338 339 340 342 341 342 344 347 341 341 345 347 349 348 349 358 3 9 9 6 10 10 10
276 281 268 259 292 316 316 353 348 340 340 336 333 331 328 325 323 324 325 329 333 335 337 340 341 338 337 341 343 342 342 343 344 344 344 347 355 358 4 6 3 353 348 337
236 229 248 261 315 301 303 338 345 339 337 336 334 330 332 329 321 323 321 324 327 330 334 337 340 338 338 339 337 339 339 341 341 337 341 342 342 348 358 2 5 8 359 358